Terug naar catalogus

ARIANE 1 DEB *

ActiefSSO
NORAD 18290·DEBRIS·🇫🇷 France

Gelanceerd Feb 22, 1986 vanaf Guiana Space Centre

Loading…

Volgende Passages (komende 24 uur)

TLE

VersSource: Space-Track

Epoch: Sep 14, 2026, 13:13 UTC

1 18290U 86019RY  26257.55085799  .00000185  00000-0  60026-4 0  9996
2 18290  97.9533 160.7699 0090697 147.4799 213.2027 14.46538289159842

Volg ARIANE 1 DEB * in realtime met AllMySat

Download on the App Store